Weather in Myski

Russia / Kemerovo Oblast     53°42′45″N   87°48′20″E
temp.,
°C
wind,
m/s
gust,
m/s
humid.,
%
clouds,
%
prec.,
mm/h
press.,
hPa
HPBL,
m
13 june, sun
sun1301:00+10sse128299 0.0 101430
04:00+9s118688 0.0 101518
07:00+11s128699 0.0 1015236
10:00+13sw227295 0.0 1015710
13:00+16w335994 0.0 10151122
16:00+19wnw444133 0.1 10142134
19:00+18wnw2456100 0.1 1014907
22:00+12nw2687100 0.3 1016174
14 june, mon
mon1401:00+11w1198100 1.7 101637
04:00+11wsw2699100 2.3 1015319
07:00+12w149994 4.0 1017322
10:00+14nw239386 1.3 1017559
13:00+16nw348676 3.8 1017937
16:00+21nw234494 0.9 10161935
19:00+18nw365627 1.0 1016581
22:00+11wsw11820 0.0 101810
15 june, tue
tue1501:00+8se11931 0.0 101810
04:00+7e11965 0.0 101910
07:00+11ene118691 0.0 1019119
10:00+17ne22546 0.0 1018610
13:00+21nnw223911 0.0 10172069
16:00+22wnw333715 0.0 10162310
19:00+20wnw35574 0.0 1016499
22:00+12nw01890 0.0 101710
16 june, wed
wed1601:00+10sse11945 0.0 101710
04:00+9ese11944 0.0 101710
07:00+12ese12835 0.0 1017122
10:00+20ssw12535 0.0 1016727
13:00+23wnw22472 0.0 10141433
16:00+24wnw24451 0.0 10131727
19:00+21w367180 0.1 1012284
22:00+16sw22882 0.0 101320
17 june, thu
thu1701:00+13s11955 1.6 101417
04:00+12sse229730 0.0 101320
07:00+15se129696 0.0 1013105
10:00+17sse0192100 0.0 1013141
13:00+23sw246012 0.0 1011811
16:00+25w3449100 0.0 10091234
19:00+23nw2569100 0.2 1008524
22:00+17sw2294100 3.0 100816